User: anonymous   Login
Location: Unspecified
(0.0000°N, 0.0000°E)
Time: 16:41:12
(UTC+00:00)
Language:

Explorer 7 - Orbit

View from above orbital plane
View from above orbital plane
View from above satellite
View from above satellite

Ground track
Ground track

The orbit data is extracted from the following two-line orbital elements,

1    22U 59009A   19016.18813609 -.00000031  00000-0  21383-4 0  9996
2    22  50.2846  13.0500 0140338  79.1742 282.4964 14.94735659147795
Epoch (UTC): 16 January 2019 04:30:54
Eccentricity: 0.0140338
inclination: 50.2846°
perigee height: 485 km
apogee height: 681 km
right ascension of ascending node: 13.0500°
argument of perigee: 79.1742°
revolutions per day: 14.94735659
mean anomaly at epoch: 282.4964°
orbit number at epoch: 14779

The dashed part of the orbit path shows where the satellite is in the earth's shadow,  

DLR